[[{"header":{"parameterUnit":"m.s-1","parameterCategory":1,"la1":30.2991,"la2":30.254,"lo1":-89.0895,"lo2":-89.0444,"dy":0.0017,"dx":0.0017,"nx":28,"ny":28,"refTime":"2025-11-28T09:00:00:Z","depth":0,"parameterNumber":2,"parameterNumberName":"U-component_of_WINDS"},"data":[0,0,0,0,0,0,0,0,0,0,0,0,0,0,0,0,0,0,0,0,0,0,0,0,0,0,0,0,0,0,0,0,0,0,0,0,0,0,0,0,0,0,0,0,0,0,0,0,0,0,0,0,0,0,0,0,0,0,-4.42,-4.4203,0,-4.4487,-4.4491,-4.4494,-4.4562,-4.456,-4.4558,-4.4557,-4.4857,-4.4867,-4.4877,0,0,0,0,0,0,0,0,0,0,0,0,0,-4.3718,-4.3726,-4.42,-4.4204,-4.4207,-4.4487,-4.4491,-4.4495,-4.4563,-4.456,-4.4558,-4.4556,-4.4854,-4.4866,-4.4877,0,0,0,0,0,0,0,0,0,0,0,0,0,-4.3958,-4.3729,-4.4199,-4.4275,-4.4284,-4.4486,-4.4491,-4.4496,-4.4563,-4.456,-4.4557,-4.4555,-4.485,-4.4865,-4.4879,-4.5028,0,0,-4.4924,-4.493,0,0,0,0,0,0,0,0,-4.3945,-4.3976,-4.426,-4.427,-4.4281,-4.4486,-4.4431,-4.4675,-4.4564,-4.4458,-4.4557,-4.4553,-4.4737,-4.476,-4.4821,-4.5043,-4.5055,-4.4925,-4.4934,-4.4941,-4.4945,0,0,0,0,0,0,0,-4.3928,-4.3964,-4.4314,-4.4264,-4.4277,-4.4296,-4.4327,-4.4478,-4.461,-4.4467,-4.4472,-4.4505,-4.4742,-4.4807,-4.4829,-4.506,-4.4925,-4.4938,-4.4947,-4.4953,-4.5419,-4.5422,0,0,0,0,0,0,-4.3897,-4.395,-4.4305,-4.4323,-4.4102,-4.4307,-4.4342,-4.4423,-4.4609,-4.4634,-4.4507,-4.4507,-4.4783,-4.4811,-4.4839,-4.5025,-4.4941,-4.4954,-4.4963,-4.5415,-4.542,-4.5424,0,0,0,0,0,0,-4.3886,-4.3928,-4.4293,-4.4138,-4.4186,-4.4319,-4.4409,-4.443,-4.4495,-4.4639,-4.4664,-4.4548,-4.4782,-4.4819,-4.498,-4.5037,-4.4961,-4.4974,-4.5411,-4.5417,-4.5422,-4.5399,0,0,0,0,0,0,-4.3872,-4.3924,-4.398,-4.4138,-4.4194,-4.4427,-4.4413,-4.4438,-4.452,-4.4522,-4.4684,-4.4709,-4.4782,-4.4958,-4.4995,-4.5056,-4.4986,-4.5407,-4.5414,-4.542,-4.5395,-4.5403,-4.5409,0,0,0,0,0,-4.3855,-4.3964,-4.3983,-4.4025,-4.4266,-4.443,-4.4462,-4.4543,-4.4524,-4.4582,-4.4675,-4.4703,-4.5025,-4.4974,-4.5016,-4.5082,-4.5404,-4.5412,-4.5419,-4.5392,-4.5401,-4.5409,0,0,0,0,0,0,-4.3811,-4.3986,-4.4009,-4.4172,-4.4285,-4.4441,-4.4517,-4.455,-4.4673,-4.4671,-4.4768,-4.4804,-4.4959,-4.5038,-4.4978,-4.5237,-4.5214,-4.5231,-4.5179,-4.5189,-4.5196,-4.5172,-4.4998,0,0,0,0,0,-4.382,-4.3936,-4.4084,-4.4214,-4.4269,-4.4383,-4.4458,-4.451,-4.4633,-4.4682,-4.4786,-4.4906,-4.5034,-4.5117,-4.5243,-4.5408,-4.5444,-4.5475,-4.5481,-4.5486,-4.5499,-4.5592,-4.5607,-4.545,-4.545,-4.545,0,0,-4.384,-4.395,-4.4018,-4.4207,-4.4301,-4.4421,-4.4423,-4.455,-4.4641,-4.4702,-4.4859,-4.4941,-4.5081,-4.5245,-4.5323,-4.5315,-4.5551,-4.5497,-4.55,-4.551,-4.5602,-4.5616,-4.5629,-4.5455,-4.5454,-4.5453,0,0,-4.3937,-4.4033,-4.415,-4.4244,-4.4386,-4.4461,-4.449,-4.4642,-4.4697,-4.4857,-4.4905,-4.5016,-4.5234,-4.5332,-4.541,-4.5546,-4.5576,-4.5585,-4.562,-4.571,-4.5722,-4.5733,-4.578,-4.5796,-4.5597,-4.5597,-4.5597,0,-4.3945,-4.4124,-4.4207,-4.4331,-4.4413,-4.4473,-4.4593,-4.4682,-4.4858,-4.4915,-4.4904,-4.5179,-4.5279,-4.5465,-4.5498,-4.556,-4.5596,-4.5565,-4.5713,-4.5725,-4.5737,-4.5783,-4.5801,-4.5597,-4.5597,-4.5597,-4.5597,0,-4.4126,-4.4251,-4.4329,-4.4495,-4.4587,-4.4709,-4.4812,-4.4895,-4.494,-4.5017,-4.518,-4.5301,-4.5452,-4.5501,-4.5548,-4.5695,-4.5686,-4.5693,-4.5672,-4.5751,-4.5795,-4.5814,-4.5597,-4.5597,-4.5597,-4.5597,0,0,-4.4202,-4.4412,-4.4439,-4.4514,-4.4676,-4.4775,-4.4901,-4.5046,-4.5115,-4.5236,-4.5344,-4.5528,-4.5536,-4.5624,-4.5683,-4.5762,-4.5859,-4.576,-4.5764,-4.5772,-4.6029,-4.602,-4.6039,-4.5882,-4.5886,-4.5889,-4.6016,0,-4.4317,-4.4539,-4.4618,-4.4803,-4.4918,-4.4977,-4.5087,-4.5199,-4.5275,-4.5387,-4.5473,-4.56,-4.5602,-4.5655,-4.5736,-4.583,-4.5912,-4.5823,-4.5984,-4.5988,-4.5943,-4.6063,-4.6055,-4.6169,-4.6035,-4.6038,-4.604,0,-4.4481,-4.46,-4.4795,-4.4941,-4.4993,-4.5089,-4.5229,-4.5334,-4.5464,-4.5514,-4.5613,-4.5666,-4.5802,-4.5774,-4.5963,-4.59,-4.5972,-4.6028,-4.6035,-4.6051,-4.6016,-4.608,-4.6208,-4.6223,-4.6069,-4.6066,-4.6064,0,-4.4513,-4.4724,-4.4867,-4.4931,-4.5105,-4.5172,-4.5248,-4.5374,-4.5457,-4.558,-4.5635,-4.5774,-4.5849,-4.5957,-4.6046,-4.6018,-4.6227,-4.6207,-4.6273,-4.627,-4.6311,-4.6307,-4.645,-4.6362,-4.6361,-4.6361,-4.6361,0,-4.4632,-4.4749,-4.4884,-4.4971,-4.5104,-4.5195,-4.5325,-4.5406,-4.5518,-4.5624,-4.5686,-4.5785,-4.5899,-4.6013,-4.6085,-4.623,-4.6265,-4.631,-4.6327,-4.6303,-4.6296,-4.6349,-4.6342,-4.6366,-4.6365,-4.6364,-4.6363,0,-4.469,-4.4785,-4.4945,-4.5097,-4.5138,-4.5229,-4.536,-4.5449,-4.5528,-4.5662,-4.5699,-4.5824,-4.5962,-4.6063,-4.6243,-4.6291,-4.6445,-4.6464,-4.64,-4.6408,-4.6467,-4.6459,-4.6646,-4.6675,-4.6569,-4.657,-4.6571,0,-4.4758,-4.4849,-4.5009,-4.5083,-4.5158,-4.5278,-4.5361,-4.5456,-4.5541,-4.5695,-4.5765,-4.5907,-4.6025,-4.6243,-4.6352,-4.649,-4.6511,-4.6567,-4.6532,-4.6504,-4.6509,-4.6502,-4.6511,-4.6571,-4.6572,-4.6572,-4.6573,0,-4.4869,-4.4911,-4.5027,-4.5161,-4.5258,-4.5368,-4.548,-4.5538,-4.5653,-4.5746,-4.5886,-4.5977,-4.6159,-4.6299,-4.6447,-4.653,-4.6571,-4.6583,-4.6605,-4.658,-4.6538,-4.6559,-4.6411,-4.6578,-4.6577,-4.6577,-4.6577,-4.6576,-4.4933,-4.5015,-4.514,-4.5269,-4.5362,-4.5464,-4.5554,-4.5644,-4.5762,-4.5915,-4.5965,-4.611,-4.6239,-4.6441,-4.6525,-4.6642,-4.664,-4.6673,-4.668,-4.6686,-4.6683,-4.6521,-4.667,-4.667,-4.667,-4.667,-4.667,0,-4.5045,-4.5128,-4.5245,-4.5397,-4.5498,-4.5526,-4.5651,-4.5734,-4.586,-4.5975,-4.6089,-4.625,-4.6387,-4.6506,-4.6648,-4.6719,-4.6741,-4.6753,-4.6747,-4.6765,-4.6678,-4.6643,-4.6732,-4.6732,-4.6732,-4.6732,-4.6732,-4.6732,-4.5114,-4.5255,-4.5312,-4.55,-4.5584,-4.5724,-4.5792,-4.5888,-4.598,-4.6156,-4.6269,-4.6345,-4.6463,-4.6614,-4.6741,-4.6773,-4.6822,-4.6828,-4.6864,-4.6779,-4.6772,-4.6764,-4.6732,-4.6838,-4.6838,-4.6942,-4.6943,-4.6944]},{"header":{"parameterUnit":"m.s-1","parameterCategory":1,"la1":30.2991,"la2":30.254,"lo1":-89.0895,"lo2":-89.0444,"dy":0.0017,"dx":0.0017,"nx":28,"ny":28,"refTime":"2025-11-28T09:00:00:Z","depth":0,"parameterNumber":3,"parameterNumberName":"V-component_of_WINDS"},"data":[0,0,0,0,0,0,0,0,0,0,0,0,0,0,0,0,0,0,0,0,0,0,0,0,0,0,0,0,0,0,0,0,0,0,0,0,0,0,0,0,0,0,0,0,0,0,0,0,0,0,0,0,0,0,0,0,0,0,4.1189,4.1187,0,4.1059,4.1057,4.1056,4.0916,4.0914,4.0912,4.0911,4.0767,4.0765,4.0763,0,0,0,0,0,0,0,0,0,0,0,0,0,4.1309,4.1307,4.1189,4.1187,4.1186,4.1059,4.1057,4.1055,4.0917,4.0914,4.0912,4.091,4.0767,4.0765,4.0763,0,0,0,0,0,0,0,0,0,0,0,0,0,4.1226,4.1307,4.1189,4.1101,4.1092,4.106,4.1057,4.1055,4.0917,4.0914,4.0911,4.0909,4.0768,4.0765,4.0762,4.0802,0,0,4.0753,4.0752,0,0,0,0,0,0,0,0,4.123,4.1221,4.1116,4.1107,4.1097,4.1001,4.1047,4.097,4.0918,4.0983,4.091,4.0907,4.0846,4.0837,4.0818,4.0795,4.0789,4.0753,4.0751,4.075,4.0749,0,0,0,0,0,0,0,4.1236,4.1226,4.1137,4.1115,4.1103,4.1066,4.1051,4.1032,4.0932,4.0977,4.0967,4.0954,4.084,4.0822,4.0814,4.0787,4.0753,4.075,4.0748,4.0747,4.0789,4.0792,0,0,0,0,0,0,4.1257,4.1232,4.1141,4.1133,4.1158,4.1066,4.1049,4.1035,4.0932,4.0914,4.0957,4.0948,4.0828,4.0818,4.0808,4.0847,4.075,4.0747,4.0745,4.0786,4.079,4.0793,0,0,0,0,0,0,4.126,4.125,4.1146,4.118,4.1164,4.1067,4.1052,4.1034,4.1015,4.0917,4.0898,4.0956,4.0825,4.0813,4.0805,4.084,4.0745,4.0743,4.0783,4.0788,4.0792,4.0926,0,0,0,0,0,0,4.1264,4.1252,4.1268,4.1181,4.1163,4.1149,4.1054,4.1033,4.1011,4.0998,4.0911,4.0894,4.0822,4.0811,4.0802,4.0834,4.074,4.0779,4.0785,4.079,4.0918,4.0934,4.0948,0,0,0,0,0,4.1269,4.1308,4.1269,4.1259,4.1181,4.1151,4.114,4.106,4.1015,4.1028,4.0966,4.0896,4.0839,4.0811,4.0801,4.0832,4.0777,4.0783,4.079,4.0911,4.0931,4.0948,0,0,0,0,0,0,4.1397,4.1295,4.1251,4.1264,4.1218,4.1128,4.1142,4.1084,4.1046,4.1035,4.0935,4.0916,4.092,4.0875,4.0846,4.0865,4.0798,4.0803,4.0893,4.0912,4.0927,4.0935,4.0738,0,0,0,0,0,4.1429,4.1415,4.1326,4.1346,4.1326,4.1239,4.1223,4.1166,4.1112,4.109,4.1027,4.0975,4.0944,4.0926,4.0893,4.0912,4.0889,4.0929,4.0944,4.0957,4.0961,4.0966,4.0982,4.0815,4.0815,4.0815,0,0,4.149,4.1433,4.143,4.1371,4.1328,4.1314,4.1223,4.1212,4.1199,4.1087,4.1076,4.103,4.0964,4.097,4.097,4.0933,4.1003,4.0966,4.0977,4.0973,4.0975,4.099,4.1005,4.0819,4.0819,4.0818,0,0,4.1594,4.1552,4.1563,4.1524,4.1462,4.1404,4.1408,4.1327,4.1292,4.1282,4.1197,4.118,4.1131,4.1088,4.1059,4.1152,4.1086,4.1144,4.1222,4.1229,4.1242,4.1253,4.1283,4.1295,4.1149,4.115,4.115,0,4.1677,4.1656,4.1576,4.1571,4.1546,4.145,4.146,4.1424,4.1353,4.1337,4.1299,4.1236,4.1186,4.118,4.1203,4.1184,4.1182,4.1151,4.1247,4.1257,4.1266,4.1294,4.1306,4.1157,4.1156,4.1155,4.1155,0,4.176,4.1747,4.1763,4.1702,4.168,4.1682,4.16,4.1588,4.1534,4.148,4.147,4.1407,4.1359,4.1354,4.13,4.1341,4.132,4.1267,4.1196,4.1291,4.1315,4.1325,4.1167,4.1165,4.1163,4.1161,0,0,4.1936,4.1834,4.1841,4.1812,4.1739,4.1725,4.1724,4.1681,4.1671,4.1626,4.162,4.1583,4.1533,4.1501,4.1442,4.1448,4.1523,4.1393,4.1389,4.1416,4.1561,4.16,4.1613,4.1481,4.1483,4.1484,4.1566,0,4.2025,4.2018,4.1948,4.196,4.1945,4.1856,4.1853,4.1807,4.1758,4.1736,4.168,4.1654,4.1592,4.1572,4.1575,4.1514,4.155,4.1507,4.147,4.1469,4.1485,4.1626,4.1666,4.1746,4.1575,4.1576,4.1578,0,4.2126,4.2092,4.2104,4.2032,4.2023,4.2023,4.1978,4.196,4.1905,4.1869,4.1836,4.1771,4.176,4.1699,4.1682,4.1655,4.1636,4.1604,4.1605,4.1594,4.1526,4.1616,4.1769,4.178,4.1592,4.1591,4.159,0,4.225,4.2207,4.2209,4.2187,4.2103,4.2105,4.207,4.2013,4.1992,4.1953,4.1938,4.1898,4.1874,4.1843,4.1767,4.173,4.1758,4.169,4.1724,4.1726,4.1729,4.1729,4.1878,4.1725,4.1725,4.1725,4.1724,0,4.2354,4.2364,4.2263,4.2264,4.2272,4.2191,4.2201,4.2156,4.2107,4.2095,4.2015,4.2005,4.1908,4.1886,4.1827,4.1821,4.1811,4.1779,4.1762,4.1784,4.1787,4.1766,4.1757,4.1728,4.1727,4.1726,4.1726,0,4.2491,4.2425,4.242,4.2344,4.2325,4.2334,4.2266,4.2262,4.221,4.2196,4.2188,4.2105,4.2075,4.1999,4.1948,4.1908,4.1917,4.1889,4.1936,4.1925,4.1962,4.1958,4.2098,4.2112,4.1955,4.1956,4.1958,0,4.256,4.2566,4.2491,4.248,4.2449,4.2431,4.2411,4.2332,4.2314,4.2254,4.2256,4.2222,4.2189,4.2146,4.2078,4.2039,4.2007,4.2059,4.2,4.2021,4.2003,4.2002,4.2001,4.207,4.2072,4.2074,4.2076,0,4.2687,4.2655,4.2631,4.2596,4.2576,4.2543,4.2506,4.25,4.2412,4.2395,4.2367,4.2342,4.2293,4.2258,4.221,4.2169,4.2106,4.2096,4.2101,4.2121,4.2147,4.213,4.1967,4.2092,4.209,4.2089,4.2088,4.2087,4.2789,4.279,4.2739,4.2715,4.268,4.2648,4.2641,4.259,4.2566,4.2522,4.2477,4.2453,4.2398,4.2327,4.2292,4.2269,4.2236,4.2245,4.2246,4.2248,4.2257,4.2155,4.226,4.226,4.2259,4.2259,4.2258,0,4.291,4.2874,4.2853,4.2805,4.2786,4.2736,4.2693,4.2679,4.266,4.2616,4.2588,4.2554,4.2521,4.2454,4.2414,4.2409,4.2379,4.24,4.2397,4.2389,4.2289,4.2288,4.2425,4.2425,4.2425,4.2425,4.2425,4.2425,4.297,4.2969,4.2932,4.2912,4.2875,4.2854,4.2833,4.2803,4.2767,4.2735,4.2709,4.2667,4.2613,4.2569,4.2536,4.2516,4.2503,4.2534,4.2505,4.2412,4.2396,4.2381,4.2378,4.2533,4.2533,4.2605,4.2606,4.2606]}]]